COSMOS 1275 DEB

Satellite information

Favourite Embed

Satellite Type and Status

DEBRISIN ORBIT

Key statistics

Satellite COSMOS 1275 DEB at a glance.

Uptime

16209

Days in orbit

Revolutions

≈ 14.0

Per day

Orbit

LEO

Low Earth Orbit

Inclination

83.0

Latest

Satellite identification and parameters

Extended collection of information and parameters for COSMOS 1275 DEB.

Object identification

Identified? True

Debris? True

Object name: COSMOS 1275 DEB

International designator: 1981-053EG

Object number (NORAD): 12952

Object ID (CCSDS): 12952

Country: COMMONWEALTH OF INDEPENDENT STATES (CIS)

Current information (Y/N): Y

RCS size: SMALL

Orbital parameters

Period: 102.948 minutes

Inclination: 82.9616 deg

SMA: 7276.198 km

Apoapsis: 904.695 km

Periapsis: 891.43 km

RAAN: 158.9287 deg

Eccentricy: 0.00091153

Argument of periapsis: 112.5218 deg

Mean anomaly: 15.3515 deg

Mean motion: 13.98769078 rev/day

Mean motion (dot): 0.00001087 rev/day2

B* drag term: 0.00074416087 1/REarth

Two-line elements (TLE)

Creation date: Oct. 19, 2025, 2:20 a.m.

Reference frame: TEME

Reference center: EARTH

Epoch: Oct. 18, 2025, 9:15 p.m. UTC

TLE line 0: 0 COSMOS 1275 DEB

TLE line 1: 1 12952U 81053EG 25291.88609677 .00001087 00000-0 74416-3 0 9997

TLE line 2: 2 12952 82.9616 158.9287 0009115 112.5218 15.3515 13.98769078229088

Live tracking on map

Real-time ground track for satellite COSMOS 1275 DEB.

In-orbit conjunctions

A list of the most updated potential collisions computed for object COSMOS 1275 DEB.

Target Orbit TCA Probability of collision Miss distance Type
SURCAL 159 LEO 2025-08-13 02:28:35 0.0005905208 110.0 (m) PAYLOAD
NOAA 16 DEB SSO 2024-09-25 21:22:54 0.0002126489 434.0 (m) DEBRIS

Associated space launch

Navigation satellite providing location information for the Tsiklon-B navigation system

COSMOS 1275 DEB was lifted into orbit during the mission ‘Kosmos-3M | Parus 27’, on board a Kosmos-3M space rocket.

The launch took place on June 4, 1981, 3:41 p.m. from 132/2.

For more information about the launch, click the button.

Launch to space Kosmos-3M | Parus 27
Kosmos-3M | Parus 27

Agency: N/A

Status: Launch Successful

Launch date: June 4, 1981, 3:41 p.m. UTC

Rocket: Kosmos-3M

Launch pad: 132/2

Location: Plesetsk Cosmodrome, Russian Federation

...

Latest news about this satellite

There are no fresh news available about this satellite. Check back as we update our databases every day.


Newsletter sign-up

Weekly statistics, charts and insights to help you stay on top of the space industry.